CW6225 Weather Reports


Display with metric or nautical units.
time (UTC)temp
F
wind
direction
speed
MPH
gust
MPH
rain 1hr
in
rain 24hr
in
rain mn
in
humidity
%
barometer
mb
20260503220055 70 180 1.0 3.0 0.00 0.00 0.00 56 1012.3
20260503214554 71 192 1.0 3.0 0.00 0.00 0.00 54 1012.4
20260503213052 71 204 0.0 3.0 0.00 0.00 0.00 55 1012.5
20260503211552 69 202 0.0 6.0 0.00 0.00 0.00 60 1012.5
20260503210052 66 0 1.0 4.0 0.00 0.00 0.00 65 1012.8
20260503204616 64 169 1.0 3.0 0.00 0.00 0.00 68 1013.0
20260503203100 63 180 1.0 4.0 0.00 0.00 0.00 70 1013.1
20260503201552 61 165 1.0 4.0 0.00 0.00 0.00 74 1013.3
20260503200051 61 186 1.0 4.0 0.00 0.00 0.00 72 1013.5
20260503194550 61 180 1.0 5.0 0.00 0.00 0.00 73 1013.6
20260503193056 59 146 1.0 4.0 0.00 0.00 0.00 75 1013.7
20260503191609 60 169 1.0 5.0 0.00 0.00 0.00 74 1014.0
20260503190056 60 180 2.0 6.0 0.00 0.00 0.00 74 1014.1
20260503184551 63 172 1.0 4.0 0.00 0.00 0.00 70 1014.2
20260503183050 62 0 1.0 7.0 0.00 0.00 0.00 71 1014.5
20260503181552 63 143 3.0 7.0 0.00 0.00 0.00 70 1014.5
20260503180058 66 215 1.0 4.0 0.00 0.00 0.00 65 1014.6
20260503174555 66 340 1.0 5.0 0.00 0.00 0.00 62 1014.7
20260503173053 65 352 4.0 6.0 0.00 0.00 0.00 62 1014.6
20260503171551 65 5 4.0 8.0 0.00 0.00 0.00 64 1014.6
20260503160106 58 301 0.0 2.0 0.00 0.00 0.00 79 1015.3
20260503081552 57 0 0.0 0.0 0.00 0.00 0.00 76 1014.7
20260503080103 57 0 0.0 0.0 0.00 0.00 0.00 75 1014.6
20260503071610 59 0 0.0 0.0 0.00 0.00 0.00 72 1014.5
20260503054607 60 0 0.0 2.0 0.00 0.00 0.00 71 1014.3
20260503053049 60 0 0.0 2.0 0.00 0.00 0.00 72 1014.3
20260503051550 59 355 0.0 4.0 0.00 0.00 0.00 73 1014.3
20260503050051 59 316 1.0 2.0 0.00 0.00 0.00 73 1014.3
20260503044552 59 0 0.0 2.0 0.00 0.00 0.00 73 1014.3
20260503043055 59 0 0.0 2.0 0.00 0.00 0.00 73 1014.2
20260503041549 59 325 0.0 2.0 0.00 0.00 0.00 73 1014.1
20260503040055 59 323 0.0 2.0 0.00 0.00 0.00 73 1014.1
20260503034549 59 0 0.0 3.0 0.00 0.00 0.00 73 1013.9
20260503033058 60 0 1.0 2.0 0.00 0.00 0.00 72 1013.8
20260503031553 61 0 0.0 3.0 0.00 0.00 0.00 71 1013.6
20260503030058 62 0 0.0 2.0 0.00 0.00 0.00 71 1013.6
20260503024549 64 0 0.0 0.0 0.00 0.00 0.00 67 1013.6
20260503023100 64 0 0.0 1.0 0.00 0.00 0.00 68 1013.7
20260503021554 64 0 0.0 1.0 0.00 0.00 0.00 68 1013.7
20260503020053 63 0 0.0 2.0 0.00 0.00 0.00 70 1013.8
20260503014602 63 0 0.0 4.0 0.00 0.00 0.00 69 1013.7
20260503013054 63 240 0.0 3.0 0.00 0.00 0.00 69 1013.8
20260503011553 62 0 0.0 5.0 0.00 0.00 0.00 71 1013.9
20260503010055 62 196 1.0 3.0 0.00 0.00 0.00 70 1014.1
20260503004613 63 0 0.0 4.0 0.00 0.00 0.00 70 1014.2
20260503003059 62 173 0.0 3.0 0.00 0.00 0.00 71 1014.1
20260503001555 62 166 0.0 4.0 0.00 0.00 0.00 71 1014.4
20260503000053 62 221 0.0 3.0 0.00 0.00 0.00 73 1014.5
20260502234558 61 220 1.0 3.0 0.00 0.00 0.00 74 1014.7
20260502233053 60 0 1.0 4.0 0.00 0.00 0.00 75 1015.0
20260502231603 59 0 1.0 5.0 0.00 0.00 0.00 77 1015.1
20260502230057 59 180 1.0 4.0 0.00 0.00 0.00 77 1015.3
20260502224556 60 190 1.0 5.0 0.00 0.00 0.00 76 1015.4
20260502223051 59 174 1.0 4.0 0.00 0.00 0.00 77 1015.6
20260502221558 59 0 1.0 9.0 0.00 0.00 0.00 77 1015.7